Terminal Aerodrome Forecast
Issued by NWS Charleston, WV

Current Version | Previous Version | Graphics & Text | Print | Product List | Glossary On
Versions: 1 2 3 4 5 6 7 8 9 10 11 12 13 14 15 16 17 18 19 20 21 22 23
260
FTUS41 KRLX 100535
TAFBKW
TAF
KBKW 100535Z 1006/1106 28012G24KT 4SM -SHSN OVC015
      TEMPO 1006/1009 2SM -SHSN BKN008
     FM100900 28010G21KT P6SM OVC015
     FM101400 27009G18KT P6SM OVC025
     FM101700 26010G17KT P6SM BKN140
     FM102300 25008KT P6SM SCT110=

USA.gov is the U.S. government's official web portal to all federal, state and local government web resources and services.